GW0309 Weather Reports


time (UTC)temp
C
wind
direction
speed
KPH
gust
KPH
rain 1hr
cm
rain 24hr
cm
rain mn
cm
humidity
%
barometer
mb
20260508044216 -17 156 4.8 4.8 0.00 0.00 0.00 1061.5
20260508043712 -17 154 1.6 3.2 0.00 0.00 0.00 1061.7
20260508043210 -17 142 1.6 4.8 0.00 0.00 0.00 1061.7
20260508042706 -17 138 0.0 3.2 0.00 0.00 0.00 1061.8
20260508042204 -17 144 1.6 3.2 0.00 0.00 0.00 1061.8
20260508041659 -17 154 1.6 3.2 0.00 0.00 0.00 1061.7
20260508041157 -17 142 3.2 3.2 0.00 0.00 0.00 1062.0
20260508040653 -17 138 0.0 1.6 0.00 0.00 0.00 1062.1
20260508040151 -17 148 1.6 1.6 0.00 0.00 0.00 1062.1
20260508035648 -17 136 0.0 1.6 0.00 0.00 0.00 1062.2
20260508035145 -17 134 0.0 1.6 0.00 0.00 0.00 1062.0
20260508034642 -17 144 1.6 1.6 0.00 0.00 0.00 1062.3
20260508034139 -17 152 1.6 3.2 0.00 0.00 0.00 1062.0
20260508033636 -17 133 0.0 0.0 0.00 0.00 0.00 1062.0
20260508033135 -17 139 0.0 1.6 0.00 0.00 0.00 1062.1
20260508032630 -17 131 0.0 0.0 0.00 0.00 0.00 1062.2
20260508032128 -17 133 0.0 0.0 0.00 0.00 0.00 1062.0
20260508031625 -17 143 0.0 1.6 0.00 0.00 0.00 1062.1
20260508031121 -17 135 0.0 1.6 0.00 0.00 0.00 1061.9
20260508030618 -17 132 0.0 0.0 0.00 0.00 0.00 1061.8
20260508030116 -17 134 0.0 0.0 0.00 0.00 0.00 1061.8
20260508025612 -17 139 0.0 0.0 0.00 0.00 0.00 1061.8
20260508025109 -17 132 0.0 0.0 0.00 0.00 0.00 1061.9
20260508024605 -17 130 0.0 0.0 0.00 0.00 0.00 1061.9
20260508024102 -17 134 0.0 0.0 0.00 0.00 0.00 1061.6
20260508023558 -17 134 0.0 0.0 0.00 0.00 0.00 1061.7
20260508023056 -17 135 0.0 0.0 0.00 0.00 0.00 1061.5
20260508022551 -17 130 0.0 0.0 0.00 0.00 0.00 1061.5
20260508022049 -17 137 0.0 0.0 0.00 0.00 0.00 1061.3
20260508021544 -17 145 1.6 1.6 0.00 0.00 0.00 1061.4
20260508021041 -17 151 1.6 3.2 0.00 0.00 0.00 1061.4
20260508020538 -17 138 0.0 1.6 0.00 0.00 0.00 1061.3
20260508020036 -17 132 0.0 0.0 0.00 0.00 0.00 1061.3
20260508015533 -17 132 0.0 0.0 0.00 0.00 0.00 1061.2
20260508015030 -17 129 0.0 0.0 0.00 0.00 0.00 1061.2
20260508014526 -17 130 0.0 0.0 0.00 0.00 0.00 1061.1
20260508014023 -17 131 0.0 0.0 0.00 0.00 0.00 1061.2
20260508013519 -17 131 0.0 0.0 0.00 0.00 0.00 1061.1
20260508013016 -17 131 0.0 0.0 0.00 0.00 0.00 1061.0
20260508012514 -17 131 0.0 0.0 0.00 0.00 0.00 1061.1
20260508012011 -17 134 0.0 0.0 0.00 0.00 0.00 1061.0
20260508011509 -17 130 0.0 0.0 0.00 0.00 0.00 1060.9
20260508011006 -17 132 0.0 1.6 0.00 0.00 0.00 1060.8
20260508010502 -17 137 0.0 1.6 0.00 0.00 0.00 1060.8
20260508005959 -17 134 0.0 1.6 0.00 0.00 0.00 1060.8
20260508005456 -17 129 0.0 1.6 0.00 0.00 0.00 1060.7
20260508004953 -17 141 1.6 1.6 0.00 0.00 0.00 1060.7
20260508004449 -17 155 1.6 3.2 0.00 0.00 0.00 1060.4
20260508003946 -17 152 0.0 1.6 0.00 0.00 0.00 1060.7
20260508003443 -17 131 0.0 1.6 0.00 0.00 0.00 1060.7
20260508002940 -17 233 1.6 3.2 0.00 0.00 0.00 1060.7
20260508002436 -17 127 0.0 3.2 0.00 0.00 0.00 1060.7
20260508001932 -17 122 1.6 1.6 0.00 0.00 0.00 1060.3
20260508001429 -17 147 0.0 1.6 0.00 0.00 0.00 1060.6
20260508000925 -17 146 1.6 8.0 0.00 0.00 0.00 1060.6
20260508000421 -17 133 0.0 3.2 0.00 0.00 0.00 1060.4
20260507235919 -17 249 3.2 4.8 0.00 0.00 0.00 1060.4
20260507235416 -17 118 3.2 8.0 0.00 0.00 0.00 1060.3
20260507234912 -17 146 3.2 9.7 0.00 0.00 0.00 1060.6
20260507234403 -17 260 4.8 8.0 0.00 0.00 0.00 1060.8
20260507233900 -17 211 3.2 12.9 0.00 0.00 0.00 1060.6
20260507233357 -17 138 1.6 3.2 0.00 0.00 0.00 1060.6
20260507232855 -17 133 1.6 1.6 0.00 0.00 0.00 1060.8
20260507232351 -17 254 3.2 8.0 0.00 0.00 0.00 1060.7
20260507231849 -17 247 3.2 14.5 0.00 0.00 0.00 1060.8
20260507231345 -17 226 4.8 11.3 0.00 0.00 0.00 1060.9
20260507230842 -17 145 3.2 8.0 0.00 0.00 0.00 1061.0
20260507230339 -17 148 1.6 8.0 0.00 0.00 0.00 1060.9
20260507225839 -17 234 4.8 4.8 0.00 0.00 0.00 1061.1
20260507225335 -17 224 3.2 4.8 0.00 0.00 0.00 1060.9
20260507224831 -17 136 1.6 11.3 0.00 0.00 0.00 1061.2
20260507224328 -17 162 3.2 4.8 0.00 0.00 0.00 1061.0
20260507223824 -17 146 8.0 14.5 0.00 0.00 0.00 1061.2
20260507223321 -17 221 1.6 8.0 0.00 0.00 0.00 1061.1
20260507222818 -17 124 3.2 3.2 0.00 0.00 0.00 1061.1
20260507222314 -17 127 1.6 4.8 0.00 0.00 0.00 1061.4
20260507221811 -17 228 4.8 8.0 0.00 0.00 0.00 1061.4
20260507221308 -17 203 3.2 17.7 0.00 0.00 0.00 1061.4
20260507220804 -17 162 3.2 4.8 0.00 0.00 0.00 1061.5
20260507220303 -17 159 3.2 3.2 0.00 0.00 0.00 1061.4
20260507215758 -17 178 6.4 14.5 0.00 0.00 0.00 1061.3
20260507215256 -17 265 6.4 8.0 0.00 0.00 0.00 1061.2
20260507214752 -17 251 3.2 4.8 0.00 0.00 0.00 1061.6
20260507214250 -17 173 1.6 9.7 0.00 0.00 0.00 1061.2
20260507213745 -17 306 6.4 14.5 0.00 0.00 0.00 1061.4
20260507213242 -17 249 11.3 14.5 0.00 0.00 0.00 1061.7
20260507212739 -17 182 1.6 11.3 0.00 0.00 0.00 1061.4
20260507212235 -17 329 6.4 9.7 0.00 0.00 0.00 1061.6
20260507211732 -17 198 3.2 9.7 0.00 0.00 0.00 1061.6
20260507211228 -17 188 3.2 8.0 0.00 0.00 0.00 1061.6
20260507210725 -17 239 3.2 12.9 0.00 0.00 0.00 1061.7
20260507210222 -17 301 6.4 11.3 0.00 0.00 0.00 1061.8
20260507205718 -17 189 3.2 4.8 0.00 0.00 0.00 1061.7
20260507205215 -17 158 1.6 8.0 0.00 0.00 0.00 1062.1
20260507204711 -17 169 0.0 8.0 0.00 0.00 0.00 1061.8
20260507204210 -17 133 1.6 3.2 0.00 0.00 0.00 1062.0
20260507203707 -17 181 1.6 8.0 0.00 0.00 0.00 1062.2
20260507203204 -17 149 1.6 4.8 0.00 0.00 0.00 1062.1
20260507202700 -17 227 8.0 11.3 0.00 0.00 0.00 1062.2
20260507202156 -17 211 6.4 14.5 0.00 0.00 0.00 1062.5
20260507201651 -17 159 4.8 8.0 0.00 0.00 0.00 1062.4
20260507201149 -17 150 1.6 4.8 0.00 0.00 0.00 1062.5
20260507200645 -17 243 9.7 22.5 0.00 0.00 0.00 1062.4
20260507200141 -17 278 6.4 11.3 0.00 0.00 0.00 1062.6
20260507195638 -17 195 4.8 9.7 0.00 0.00 0.00 1062.5
20260507195135 -17 188 6.4 14.5 0.00 0.00 0.00 1062.6
20260507194632 -17 142 0.0 4.8 0.00 0.00 0.00 1062.7
20260507194127 -17 297 3.2 4.8 0.00 0.00 0.00 1063.0
20260507193624 -17 161 3.2 11.3 0.00 0.00 0.00 1062.8
20260507193121 -17 268 8.0 16.1 0.00 0.00 0.00 1062.9
20260507192617 -17 246 8.0 12.9 0.00 0.00 0.00 1062.8
20260507192114 -17 203 11.3 14.5 0.00 0.00 0.00 1063.3
20260507191610 -17 108 1.6 4.8 0.00 0.00 0.00 1063.1
20260507191107 -17 206 3.2 11.3 0.00 0.00 0.00 1062.9
20260507190604 -17 255 8.0 9.7 0.00 0.00 0.00 1063.0
20260507185601 -17 269 4.8 8.0 0.00 0.00 0.00 1063.1
20260507185057 -17 134 1.6 4.8 0.00 0.00 0.00 1062.9
20260507184556 -17 170 1.6 8.0 0.00 0.00 0.00 1063.1
20260507184053 -17 130 1.6 12.9 0.00 0.00 0.00 1063.0
20260507183548 -17 223 4.8 16.1 0.00 0.00 0.00 1063.4
20260507183046 -17 92 3.2 4.8 0.00 0.00 0.00 1063.5
20260507182542 -17 227 4.8 9.7 0.00 0.00 0.00 1063.4
20260507182038 -17 184 3.2 14.5 0.00 0.00 0.00 1063.5
20260507181536 -17 147 1.6 8.0 0.00 0.00 0.00 1063.7
20260507181032 -17 244 4.8 12.9 0.00 0.00 0.00 1063.9
20260507180528 -17 230 4.8 9.7 0.00 0.00 0.00 1063.8
20260507180025 -17 195 3.2 4.8 0.00 0.00 0.00 1063.8
20260507175521 -17 208 1.6 4.8 0.00 0.00 0.00 1063.9
20260507175019 -17 168 1.6 9.7 0.00 0.00 0.00 1064.1
20260507174516 -17 253 4.8 8.0 0.00 0.00 0.00 1064.0
20260507174014 -17 171 3.2 4.8 0.00 0.00 0.00 1064.3
20260507173510 -17 178 3.2 4.8 0.00 0.00 0.00 1064.3
20260507173008 -17 164 3.2 9.7 0.00 0.00 0.00 1064.4
20260507172503 -17 253 11.3 12.9 0.00 0.00 0.00 1064.4
20260507172000 -17 166 3.2 11.3 0.00 0.00 0.00 1064.4
20260507171456 -17 134 1.6 3.2 0.00 0.00 0.00 1064.4
20260507170953 -17 156 1.6 8.0 0.00 0.00 0.00 1064.5
20260507170450 -17 266 3.2 8.0 0.00 0.00 0.00 1064.8
20260507165946 -17 197 4.8 8.0 0.00 0.00 0.00 1064.7
20260507165442 -17 233 6.4 12.9 0.00 0.00 0.00 1064.8
20260507164938 -17 155 4.8 4.8 0.00 0.00 0.00 1064.8
20260507164435 -17 132 1.6 3.2 0.00 0.00 0.00 1064.9
20260507163932 -17 142 3.2 4.8 0.00 0.00 0.00 1064.9
20260507163429 -17 288 9.7 11.3 0.00 0.00 0.00 1064.7
20260507162926 -17 174 1.6 9.7 0.00 0.00 0.00 1064.9
20260507162421 -17 297 4.8 9.7 0.00 0.00 0.00 1065.1
20260507161919 -17 106 3.2 9.7 0.00 0.00 0.00 1064.8
20260507161414 -17 192 1.6 4.8 0.00 0.00 0.00 1064.9
20260507160912 -17 120 1.6 4.8 0.00 0.00 0.00 1064.9
20260507160407 -17 246 4.8 8.0 0.00 0.00 0.00 1065.2
20260507155904 -17 215 4.8 12.9 0.00 0.00 0.00 1065.2
20260507155359 -17 280 6.4 9.7 0.00 0.00 0.00 1065.2
20260507154857 -17 131 3.2 11.3 0.00 0.00 0.00 1065.0
20260507154354 -17 148 3.2 4.8 0.00 0.00 0.00 1065.0
20260507153852 -17 249 4.8 12.9 0.00 0.00 0.00 1065.1
20260507153348 -17 113 1.6 4.8 0.00 0.00 0.00 1065.1
20260507152844 -17 283 6.4 14.5 0.00 0.00 0.00 1065.2
20260507152340 -17 143 6.4 12.9 0.00 0.00 0.00 1065.0
20260507151836 -17 54 1.6 8.0 0.00 0.00 0.00 1065.4
20260507151332 -17 167 1.6 4.8 0.00 0.00 0.00 1065.5
20260507150830 -17 113 1.6 3.2 0.00 0.00 0.00 1065.2
20260507150327 -17 130 1.6 8.0 0.00 0.00 0.00 1065.3
20260507145822 -17 140 1.6 3.2 0.00 0.00 0.00 1065.5
20260507145320 -17 240 6.4 9.7 0.00 0.00 0.00 1065.4
20260507144817 -17 155 1.6 1.6 0.00 0.00 0.00 1065.6
20260507144314 -17 124 1.6 3.2 0.00 0.00 0.00 1065.5
20260507143810 -17 162 3.2 3.2 0.00 0.00 0.00 1065.6
20260507143308 -17 140 3.2 3.2 0.00 0.00 0.00 1065.4
20260507142803 -17 131 1.6 3.2 0.00 0.00 0.00 1065.3
20260507142300 -17 95 1.6 1.6 0.00 0.00 0.00 1065.5
20260507141757 -17 152 3.2 3.2 0.00 0.00 0.00 1065.7
20260507141254 -17 157 1.6 3.2 0.00 0.00 0.00 1065.6
20260507140750 -17 124 1.6 1.6 0.00 0.00 0.00 1065.7
20260507140247 -17 97 1.6 1.6 0.00 0.00 0.00 1065.6
20260507135744 -17 143 1.6 3.2 0.00 0.00 0.00 1065.6
20260507135242 -17 124 1.6 8.0 0.00 0.00 0.00 1065.5
20260507134738 -17 126 3.2 4.8 0.00 0.00 0.00 1065.6
20260507134235 -17 130 1.6 1.6 0.00 0.00 0.00 1065.6
20260507133730 -17 123 0.0 1.6 0.00 0.00 0.00 1065.7
20260507133227 -17 115 1.6 4.8 0.00 0.00 0.00 1065.8
20260507132725 -17 120 0.0 1.6 0.00 0.00 0.00 1065.5
20260507132221 -17 124 1.6 1.6 0.00 0.00 0.00 1065.6
20260507131718 -17 134 0.0 1.6 0.00 0.00 0.00 1065.6
20260507131216 -17 146 1.6 1.6 0.00 0.00 0.00 1066.0
20260507130712 -17 123 0.0 3.2 0.00 0.00 0.00 1066.0
20260507130210 -17 118 0.0 1.6 0.00 0.00 0.00 1065.6
20260507125708 -17 124 0.0 1.6 0.00 0.00 0.00 1065.8
20260507125206 -17 126 0.0 0.0 0.00 0.00 0.00 1065.6
20260507124702 -17 126 0.0 0.0 0.00 0.00 0.00 1065.8
20260507124159 -17 131 0.0 1.6 0.00 0.00 0.00 1065.6
20260507123657 -17 129 0.0 0.0 0.00 0.00 0.00 1065.7
20260507123154 -17 129 0.0 0.0 0.00 0.00 0.00 1065.5
20260507122654 -17 129 0.0 0.0 0.00 0.00 0.00 1065.4
20260507122151 -17 128 0.0 0.0 0.00 0.00 0.00 1065.5
20260507121647 -17 129 0.0 0.0 0.00 0.00 0.00 1065.3
20260507121143 -17 135 0.0 1.6 0.00 0.00 0.00 1065.4
20260507120639 -17 137 1.6 1.6 0.00 0.00 0.00 1065.2
20260507120136 -17 137 1.6 1.6 0.00 0.00 0.00 1065.2
20260507115632 -17 135 0.0 1.6 0.00 0.00 0.00 1065.5
20260507115128 -17 128 0.0 0.0 0.00 0.00 0.00 1065.1
20260507114624 -17 133 0.0 1.6 0.00 0.00 0.00 1065.2
20260507114121 -17 128 0.0 0.0 0.00 0.00 0.00 1065.2
20260507113619 -17 132 0.0 0.0 0.00 0.00 0.00 1065.1
20260507113116 -17 137 1.6 1.6 0.00 0.00 0.00 1065.0
20260507112614 -17 132 0.0 0.0 0.00 0.00 0.00 1065.2
20260507112110 -17 132 0.0 0.0 0.00 0.00 0.00 1064.9
20260507111607 -17 132 0.0 0.0 0.00 0.00 0.00 1065.0
20260507111104 -17 131 0.0 0.0 0.00 0.00 0.00 1065.0
20260507110600 -17 131 0.0 0.0 0.00 0.00 0.00 1064.6
20260507110057 -17 130 0.0 0.0 0.00 0.00 0.00 1065.0
20260507105553 -17 130 0.0 0.0 0.00 0.00 0.00 1064.9
20260507105049 -17 133 0.0 0.0 0.00 0.00 0.00 1064.8
20260507104547 -17 130 0.0 0.0 0.00 0.00 0.00 1064.8
20260507104043 -17 130 0.0 0.0 0.00 0.00 0.00 1064.8
20260507103539 -17 131 0.0 0.0 0.00 0.00 0.00 1064.9
20260507103036 -17 132 0.0 0.0 0.00 0.00 0.00 1064.9
20260507102533 -17 132 0.0 0.0 0.00 0.00 0.00 1064.7
20260507102030 -17 132 0.0 1.6 0.00 0.00 0.00 1064.9
20260507101525 -17 132 0.0 0.0 0.00 0.00 0.00 1064.8
20260507101021 -17 131 0.0 1.6 0.00 0.00 0.00 1064.9
20260507100519 -17 144 1.6 3.2 0.00 0.00 0.00 1064.8
20260507100017 -17 141 1.6 1.6 0.00 0.00 0.00 1064.7
20260507095514 -17 132 0.0 1.6 0.00 0.00 0.00 1064.9
20260507095011 -17 134 0.0 0.0 0.00 0.00 0.00 1064.9
20260507094507 -17 132 0.0 0.0 0.00 0.00 0.00 1064.8
20260507094004 -17 142 1.6 1.6 0.00 0.00 0.00 1064.6
20260507093501 -17 132 0.0 0.0 0.00 0.00 0.00 1064.6
20260507093000 -17 135 0.0 1.6 0.00 0.00 0.00 1064.7
20260507092456 -17 141 1.6 1.6 0.00 0.00 0.00 1064.8
20260507091953 -17 132 0.0 0.0 0.00 0.00 0.00 1064.8
20260507091449 -17 129 0.0 0.0 0.00 0.00 0.00 1064.8
20260507090945 -17 131 0.0 0.0 0.00 0.00 0.00 1064.8
20260507090441 -17 131 0.0 0.0 0.00 0.00 0.00 1064.5
20260507085938 -17 138 0.0 1.6 0.00 0.00 0.00 1064.8
20260507085435 -17 133 0.0 0.0 0.00 0.00 0.00 1064.7
20260507084932 -17 134 1.6 1.6 0.00 0.00 0.00 1064.4
20260507084429 -17 130 0.0 0.0 0.00 0.00 0.00 1064.3
20260507083926 -17 130 0.0 0.0 0.00 0.00 0.00 1064.7
20260507083423 -17 133 0.0 1.6 0.00 0.00 0.00 1064.4
20260507082914 -17 139 1.6 1.6 0.00 0.00 0.00 1064.5
20260507082410 -17 130 0.0 0.0 0.00 0.00 0.00 1064.7
20260507081907 -17 129 0.0 0.0 0.00 0.00 0.00 1064.6
20260507081403 -17 126 0.0 0.0 0.00 0.00 0.00 1064.8
20260507080859 -17 128 0.0 0.0 0.00 0.00 0.00 1064.8
20260507080356 -17 129 0.0 0.0 0.00 0.00 0.00 1065.1
20260507075851 -17 130 0.0 1.6 0.00 0.00 0.00 1064.9
20260507075348 -17 129 0.0 0.0 0.00 0.00 0.00 1065.0
20260507074844 -17 130 0.0 0.0 0.00 0.00 0.00 1065.0
20260507074342 -17 134 0.0 0.0 0.00 0.00 0.00 1065.4
20260507073839 -17 133 0.0 1.6 0.00 0.00 0.00 1065.2
20260507073335 -17 129 0.0 0.0 0.00 0.00 0.00 1065.0
20260507072832 -17 129 0.0 0.0 0.00 0.00 0.00 1065.2
20260507072330 -17 129 0.0 0.0 0.00 0.00 0.00 1065.2
20260507071827 -17 132 0.0 0.0 0.00 0.00 0.00 1065.3
20260507071324 -17 129 0.0 0.0 0.00 0.00 0.00 1065.2
20260507070820 -17 127 0.0 0.0 0.00 0.00 0.00 1065.4
20260507070318 -17 126 0.0 0.0 0.00 0.00 0.00 1065.1
20260507065814 -17 128 0.0 0.0 0.00 0.00 0.00 1065.2
20260507065311 -17 129 0.0 0.0 0.00 0.00 0.00 1065.3
20260507064808 -17 128 0.0 0.0 0.00 0.00 0.00 1065.2
20260507064307 -17 129 0.0 0.0 0.00 0.00 0.00 1065.1
20260507063805 -17 128 0.0 0.0 0.00 0.00 0.00 1065.0
20260507063301 -17 129 0.0 0.0 0.00 0.00 0.00 1065.3
20260507062758 -17 129 0.0 0.0 0.00 0.00 0.00 1065.0
20260507062255 -17 129 0.0 0.0 0.00 0.00 0.00 1065.2
20260507061753 -17 129 0.0 1.6 0.00 0.00 0.00 1065.2
20260507061250 -17 132 1.6 1.6 0.00 0.00 0.00 1065.1
20260507060748 -17 137 1.6 1.6 0.00 0.00 0.00 1065.3
20260507060245 -17 138 1.6 1.6 0.00 0.00 0.00 1065.4
20260507055741 -17 132 0.0 0.0 0.00 0.00 0.00 1065.5
20260507055237 -17 135 0.0 0.0 0.00 0.00 0.00 1065.2
20260507054733 -17 132 0.0 1.6 0.00 0.00 0.00 1065.5
20260507054230 -17 146 1.6 1.6 0.00 0.00 0.00 1065.3
20260507053727 -17 139 1.6 1.6 0.00 0.00 0.00 1065.2
20260507053225 -17 128 0.0 1.6 0.00 0.00 0.00 1065.0
20260507052724 -17 135 0.0 1.6 0.00 0.00 0.00 1065.3
20260507052220 -17 126 1.6 1.6 0.00 0.00 0.00 1065.0
20260507051718 -17 137 0.0 1.6 0.00 0.00 0.00 1065.2
20260507051214 -17 137 0.0 1.6 0.00 0.00 0.00 1065.3
20260507050710 -17 131 0.0 1.6 0.00 0.00 0.00 1065.1
20260507050208 -17 126 0.0 1.6 0.00 0.00 0.00 1065.0
20260507045704 -17 122 0.0 0.0 0.00 0.03 0.03 1065.0
20260507045200 -17 115 0.0 1.6 0.00 0.03 0.03 1065.1
20260507044658 -17 111 1.6 1.6 0.00 0.03 0.03 1065.0